Regional Weather Roundup
Issued by NWS Raleigh/Durham, NC

Home | Current Version | Previous Version | Text Only | Print | Product List | Glossary On
Versions: 1 2 3 4 5 6 7 8 9 10 11 12 13 14 15 16 17 18 19 20 21 22 23 24 25 26 27
000
ASUS42 KRAH 290110
RWRRAH
NORTH CAROLINA WEATHER ROUNDUP
NATIONAL WEATHER SERVICE RALEIGH NC
900 PM EDT TUE MAR 28 2017

NOTE: "FAIR" INDICATES FEW OR NO CLOUDS BELOW 12,000 FEET WITH NO
SIGNIFICANT WEATHER AND/OR OBSTRUCTIONS TO VISIBILITY.

NCZ001-053-055-056-065-067-290200-
WESTERN NORTH CAROLINA

CITY           SKY/WX    TMP DP  RH WIND       PRES   REMARKS
ASHEVILLE      CLEAR     63  49  60 N12       30.02R
JEFFERSON      CLOUDY    55  46  73 NW13G18   30.04R
MORGANTON      CLEAR     62  50  64 CALM      30.02R
HICKORY        CLEAR     65  49  56 N5        29.96R
RUTHERFORDTON  CLEAR     67  49  52 NE7       29.97R
MOUNT AIRY     CLEAR     64  52  64 NW3       30.00R
BOONE          CLEAR     54  47  78 W5        30.04R
$$

NCZ021-022-025-041-071-084-088-290200-
CENTRAL NORTH CAROLINA

CITY           SKY/WX    TMP DP  RH WIND       PRES   REMARKS
CHARLOTTE      MOCLDY    67  48  50 N7        29.94R
GREENSBORO     PTCLDY    67  50  54 N14G21    29.94R
WINSTON-SALEM  CLEAR     67  46  47 NW6       29.97R
RALEIGH-DURHAM PTCLDY    66  55  67 NE5       29.91R
FORT BRAGG     LGT RAIN  66  63  88 CALM      29.90R
FAYETTEVILLE   MOCLDY    73  57  57 NW3       29.90R
BURLINGTON     CLEAR     70  50  49 NW8       29.92R
LAURINBURG     PTCLDY    70  56  61 N5        29.91R
$$

NCZ011-015-027-028-043-044-047-080-103-290200-
NORTHEASTERN NORTH CAROLINA

CITY           SKY/WX    TMP DP  RH WIND       PRES   REMARKS
ROCKY MT-WILSO MOCLDY    62  61  96 CALM      29.91R
GREENVILLE     PTCLDY    64  61  88 CALM      29.94R
WASHINGTON     PTCLDY    60  59  94 CALM      29.92R
ELIZABETH CITY CLEAR     62  59  90 SW8       29.89R
MANTEO         CLOUDY    61  60  95 SW5       29.90R
CAPE HATTERAS  LGT RAIN  64  59  83 W13G25    29.89F
$$

NCZ078-087-090-091-093-098-101-290200-
SOUTHEASTERN NORTH CAROLINA

CITY           SKY/WX    TMP DP  RH WIND       PRES   REMARKS
LUMBERTON      PTCLDY    70  61  73 NW3       29.90R
GOLDSBORO      PTCLDY    65  65 100 E6        29.90R
KENANSVILLE    MOCLDY    63  63 100 CALM      29.91R FOG
NEW BERN       PTCLDY    59  59 100 CALM      29.92R
CHERRY POINT   MOCLDY    63  61  93 E6        29.92R
BEAUFORT       MOCLDY    66  65  96 S12       29.91F
JACKSONVILLE   PTCLDY    64  64 100 S3        29.91R
WILMINGTON     CLOUDY    68  60  75 VRB7      29.92R
$$





USA.gov is the U.S. government's official web portal to all federal, state and local government web resources and services.